This demonstration page uses our WeatherBlox Daily Observations layout. Learn more.

Left ArrowRight Arrow

39.92423, -83.80882

Hourly Observations for March 22, 2020

Temp ( °F °C ) Dew Point ( °F °C ) Humidity (%) Winds ( mph kmh ) Pressure ( in mb ) Visibility ( mi km ) Precip ( " mm )
12:56 am 00:56 Cloudy 28 -2.2 24 -4.4 85 85 NE 9 15 30.53 1034 10 16.0934 0.49 12.446
1:56 am 01:56 Cloudy 28 -2.2 24 -4.4 85 85 NE 8 13 30.53 1034 10 16.0934 0.55 13.97
2:56 am 02:56 Partly Cloudy 26 -3.3 23 -5 88 88 ENE 3 6 30.54 1034 10 16.0934 0 0
3:56 am 03:56 Clear 24 -4.4 23 -5 96 96 NNE 7 11 30.53 1034 10 16.0934 0.01 0.254
4:56 am 04:56 Clear 24 -4.4 22 -5.6 91 91 NE 7 11 30.52 1033 10 16.0934 0.14 3.556
5:56 am 05:56 Clear 23 -5 21 -6.1 92 92 NE 7 11 30.53 1034 10 16.0934 0.03 0.762
6:56 am 06:56 Clear 23 -5 22 -5.6 96 96 ENE 7 11 30.52 1034 10 16.0934 0 0
7:56 am 07:56 Sunny 25 -3.9 24 -4.4 96 96 ENE 10 17 30.53 1034 10 16.0934 0 0
8:56 am 08:56 Sunny 28 -2.2 25 -3.9 88 88 E 10 17 30.55 1034 10 16.0934 0 0
9:56 am 09:56 Sunny 31 -0.6 26 -3.3 82 82 E 15 24 30.54 1034 10 16.0934 0 0
10:56 am 10:56 Sunny 35 1.7 27 -2.8 72 72 E 14 22 30.52 1033 10 16.0934 0 0
11:56 am 11:56 Sunny 37 2.8 28 -2.2 70 70 ESE 14 22 30.49 1033 10 16.0934 0.35 8.89
12:56 pm 12:56 Mostly Sunny 39 3.9 30 -1.1 70 70 E 12 19 30.47 1032 10 16.0934 0 0
1:56 pm 13:56 Mostly Sunny 41 5 30 -1.1 65 65 E 8 13 30.43 1031 10 16.0934 2.75 69.85
2:56 pm 14:56 Mostly Cloudy 41 5 31 -0.6 67 67 E 13 20 30.38 1029 10 16.0934 0.99 25.146
3:56 pm 15:56 Cloudy 41 5 31 -0.6 67 67 E 10 17 30.36 1028 10 16.0934 2.01 51.054
4:56 pm 16:56 Cloudy with Light Rain 41 5 32 0 70 70 E 10 17 30.35 1028 10 16.0934 1.05 26.67
5:56 pm 17:56 Cloudy with Light Rain 38 3.3 34 1.1 86 86 ENE 8 13 30.33 1027 9 14.48406 0.02 0.508
6:56 pm 18:56 Cloudy with Rain 38 3.3 35 1.7 89 89 ENE 12 19 30.32 1027 9 14.48406 0.13 3.302
7:56 pm 19:56 Cloudy 37 2.8 35 1.7 93 93 E 12 19 30.27 1025 10 16.0934 0.02 0.508
8:56 pm 20:56 Cloudy 37 2.8 36 2.2 96 96 NE 12 19 30.25 1024 10 16.0934 0 0
9:56 pm 21:56 Cloudy 38 3.3 36 2.2 93 93 ENE 10 17 30.26 1025 10 16.0934 0 0
10:56 pm 22:56 Mostly Cloudy 38 3.3 36 2.2 93 93 E 9 15 30.23 1024 10 16.0934 0 0
11:56 pm 23:56 Cloudy 38 3.3 36 2.2 93 93 E 6 9 30.21 1023 10 16.0934 0 0

Powered by AerisWeather